{"data":{"norad_id":60020,"intl_designator":"2024-111E","name":"STARLINK-31883","alt_names":[],"object_type":"PAYLOAD","status":"ACTIVE","operator":null,"country":"US","launch_date":"2024-06-08","launch_site_code":"AFETR","launch_vehicle":null,"mission":null,"orbit_class":"UNKNOWN","rcs_meters":null,"size_class":null,"mass_kg":null,"dimensions":null,"purposes":["comms"],"wikipedia_slug":null,"has_3d_model":false,"image_url":null,"decayed_at":null,"tle_current":{"epoch":"2026-05-25T04:48:59.915808Z","epoch_age_seconds":53785,"freshness":"FRESH","line1":"1 60020U 24111E   26145.20069347  .00001184  00000+0  52084-4 0  9992","line2":"2 60020  53.1611  80.5273 0001222  90.1768 269.9373 15.30195901110690","mean_motion":15.30195901,"eccentricity":0.0001222,"inclination_deg":53.1611,"raan_deg":80.5273,"arg_perigee_deg":90.1768,"mean_anomaly_deg":269.9373,"bstar":5.2084e-5,"rev_number":11069,"period_min":94.105597790384,"perigee_km":474.38982720332,"apogee_km":476.06478944027,"semimajor_km":6853.3643083218,"source":"CELESTRAK","updated_at":"2026-05-25T13:38:19.131684Z"}}}